Orbital Elements at Epoch 2459200.5 (2020-Dec-17.0) TDB
Reference: JPL 33 (heliocentric ecliptic J2000)
Element | Value | Uncertainty (1-sigma) | Units |
e | .1057945912294623 | 2.9221e-08 | |
a | 2.240907778497291 | 6.7081e-09 | au |
q | 2.003831856088247 | 6.7935e-08 | au |
i | 3.575530399534921 | 3.2435e-06 | deg |
node | 125.6817832861467 | 4.8246e-05 | deg |
peri | 156.9985982925529 | 5.0851e-05 | deg |
M | 348.8260820880212 | 1.5732e-05 | deg |
tp | 2459238.530967927662 (2021-Jan-24.03096793) | 5.3572e-05 | TDB |
period | 1225.27734334622 3.35 | 5.5017e-06 1.506e-08 | d yr |
n | .2938110314003224 | 1.3193e-09 | deg/d |
Q | 2.477983700906334 | 7.4177e-09 | au |
|
| | Orbit Determination Parameters
Additional Information
|